depornauta-radio-shimano-190x780-derecha
depornauta-radio-shimano-190x780-izquierda
atletismo
23/01/2012

Siempre primero

A mediados de diciembre obtuvo el sexto puesto entre los 2.300 participantes del Maratón de Castellón en España donde corrió los 42 kilómetros en 2h18m09s que lo situaron a tan sólo nueve segundos de la marca B clasificatoria para los Juegos Olímpicos que anhela lograr en abril próximo en Rotterdam. Como forma de calentar motores, retornó a las pistas argentinas y lo hizo con un triunfo porque el atleta santafesino Nicolás Ternavasio subió a la cima del podio de la segunda edición de los 10K CRAS donde su esposa Verónica Ramírez se colgó la medalla de bronce en la clasificación general femenina.

Nacido hace veintiocho años en el pueblo de San Vicente, Nicolás Ternavasio conquistó la Copa Challenger al sumar dos victorias consecutivas en esta prueba organizada por el Club Rafaelino de Atletismo y Servicios gracias a correr los diez kilómetros en 31 minutos y 5 segundos que lo convirtieron en el más veloz de los 116 competidores que cruzaron la meta. Con una velocidad promedio de tres minutos y seis segundos por kilómetro a pesar del cansancio que arrastra de la temporada 2011 en la que compitió en tres maratones ya que además de los 42K españoles logró un cuerto puesto en el Iberoamericano de Caracas y ganó en Rosario, Nico Ternavasio superó por un minuto y once segundos a su escolta, Héctor Gómez de la localidad de Lehmann, mientras que el entrerriano Walter Jacob arribó tercero con 34m33s. seguido del cordobés Eduardo González y el local José Ledesma, cuarto y quinto con 35m45s y 36m33s respectivamente.

Entre las mujeres se impuso Isabel Ponce al correr los diez kilómetros en 38 minutos y 27 segundos que equivalen a un ritmo de tres minutos y cincuenta para cada mil metros. En segundo lugar se situó Fabiana Gaitán con 39 minutos exactos, ni un segundo más ni uno menos, por delante de Verónica Ramírez, esposa de Ternavasio, cuyos 44 minutos y 9 segundos le valieron la tercera ubicación entre las veinte participantes de esta segunda edición.

Corredor Edad Sexo Ciudad Tiempo Prom.
1 TERNAVASIO, NICOLAS 28 M SAN VICENTE 31:05:41 3:06:34
2 GOMEZ, HECTOR PASCUAL 25 M LEHMANN 32:16:32 3:13:39
3 JACOB, WALTER 24 M CRESPO (E.R.) 34:33:39 3:27:22
4 GONZALEZ, EDUARDO FELICIANO 26 M SUCO (CBA) 35:45:00 3:34:30
5 LEDESMA, JOSE 41 M RAFAELA 36:33:00 3:39:18
6 MANSILLA, CARLOS 29 M AÑATUYA (S.E.) 37:11:26 3:43:09
7 ORUNDEZ AYALA, JUAN CARLOS 28 M RAFAELA 37:46:01 3:46:36
8 PEREYRA, JUAN MARCELO 37 M PARANA (E.R.) 38:25:00 3:50:30
9 PONCE, ISABEL PATRICIA 37 F ESPERANZA 38:27:00 3:50:42
10 KURIGER, FERNANDO 30 M RAFAELA 38:30:13 3:51:01
11 D´ESPOSITO, MIGUEL OMAR 44 M ESPERANZA 38:47:45 3:52:47
12 GAITAN. FABIANA 41 F SANTA FE 39:00:16 3:54:02
13 BETTIG, GABRIEL 27 M FRANCK 39:04:00 3:54:24
14 RODRIGUEZ, OSVALDO 37 M RAFAELA 39:30:00 3:57:00
15 SIMI, LUIS EDUARDO 40 M BARRANCAS 39:53:09 3:59:19
16 NIEVAS, RICARDO 55 M LA LUCILA 41:15:09 4:07:31
17 CORDOBA, MILLAN 51 M SANTA FE 41:50:00 4:11:00
18 AGUILERA, BRUNO 16 M PORTEÑA (CBA) 42:00:00 4:12:00
19 AGUILERA, TOMAS GUILLERMO 14 M PORTEÑA (CBA) 42:02:08 4:12:13
20 MAGALLANES, ARIEL 20 M RAFAELA 42:04:00 4:12:24
21 REHLING, RUBEN IRMO 45 M ESPERANZA 42:21:26 4:14:09
22 REINHARDT, MARIANO 36 M RAFAELA 42:44:07 4:16:25
23 SICURELLA, JORGE 37 M RAFAELA 42:48:07 4:16:49
24 SOSA, OSCAR DARIO 36 M BANDERA (S.E) 43:14:00 4:19:24
25 STENDERUP, DAVID 39 M RAFAELA 43:27:23 4:20:44
26 CARAVARIO, FRANCO 19 M RAFAELA 43:37:23 4:21:44
27 CULASSO, EDUARDO 50 M RAFAELA 43:46:45 4:22:41
28 BONETTO, CESAR 39 M RAFAELA 44:07:26 4:24:45
29 RAMIREZ, VERONICA JUDIT 26 F SAN VICENTE 44:09:13 4:24:55
30 GUERRERO, LUIS ALBERTO 40 M SANTA FE 44:44:00 4:28:24
31 TOLEDO, GONZALO 21 M RAFAELA 44:45:00 4:28:30
32 CASSINA, ANDRES 34 M RAFAELA 44:57:23 4:29:44
33 PAROLA, SILVIO 52 M RAFAELA 45:02:20 4:30:14
34 PERREN, HECTOR A. 53 M S.J. NORTE 45:05:54 4:30:35
35 TERNAVASIO, FABRICIO ANDRES 25 M SAN VICENTE 45:30:00 4:33:00
36 CARPIO, WALTER H. 33 M RAFAELA 45:45:45 4:34:35
37 GUERRERO, GASTON 36 M RAFAELA 45:46:45 4:34:41
38 GOMEZ, HUGO OMAR CD M SAN CRISTOBAL 45:51:32 4:35:09
39 PAREDES, WALTER 23 M SAN CRISTOBAL 45:57:32 4:35:45
40 DRUBICH, DIEGO 42 M RAFAELA 46:03:00 4:36:18
41 BISIO, FERNANDO DAMIAN 34 M COLASTINE NORTE 46:45:00 4:40:30
42 MARTINEZ, RAFAEL 36 M SANTA FE 46:58:09 4:41:49
43 RAMINELLI, DANIEL 33 M RAFAELA 47:06:32 4:42:39
44 SANMARTINO, GUSTAVO H. 38 M RAFAELA 47:09:00 4:42:54
45 CATTALIN, SANTIAGO FEDERICO 57 M SANTO TOME 47:10:00 4:43:00
46 BORLLE, MARIANA 42 F RAFAELA 47:23:00 4:44:18
47 BERMUDEZ, RODOLFO 41 M SANTA FE 47:30:06 4:45:01
48 DONNET, JOSE 47 M RAFAELA 47:41:09 4:46:07
49 LLULL, DIEGO 30 M RAFAELA 47:42:00 4:46:12
50 ORTIZ, PEDRO 47 M RAFAELA 47:56:00 4:47:36
51 VEGA, JAVIER 40 M SANTA FE 48:10:00 4:49:00
52 BOLZICO, LUCIANO 33 M SUNCHALES 48:12:00 4:49:12
53 PERETTI, DIEGO 42 M RAFAELA 48:18:36 4:49:52
54 TOLEDO, LUIS 50 M RAFAELA 48:20:08 4:50:01
55 ALVARENGA, PABLO 19 M PARANA (E.R.) 48:34:36 4:51:28
56 WEINER, JAVIER 35 M RAFAELA 48:39:32 4:51:57
57 BARTOMIOLI, MARTIN 37 M RAFAELA 48:48:00 4:52:48
58 CAZZANIGA, CESAR LUIS 32 M RAFAELA 48:59:13 4:53:55
59 VALENTINUZZI, IVANA 43 F SANTO TOME 49:13:13 4:55:19
60 CHICCO, RICARDO 47 M RAFAELA 49:18:00 4:55:48
61 GAMARRA, SERGIO RAUL 44 M SAN JORGE 49:21:36 4:56:10
62 BRUNO, JOSE 52 M RAFAELA 49:27:32 4:56:45
63 YOSSEN, DANIEL 43 M FRANCK 49:33:00 4:57:18
64 DIAZ, CLAUDIO JULIO 49 M MORON (B.AIRES) 49:37:00 4:57:42
65 BENITEZ, ANGEL EUGENIO 57 M SANTA FE 49:47:00 4:58:42
66 RODRIGUEZ MESON, SILVINA 38 F RAMONA 49:52:00 4:59:12
67 VILLARREAL, DAMIAN 25 M RAFAELA 49:55:16 4:59:32
68 SANTI, MIRKO SEBASTIAN 33 M RAFAELA 49:56:01 4:59:36
69 TORANZO, FERNANDO 17 M PORTEÑA (CBA) 49:56:39 4:59:40
70 MARZIONI, FERNANDO 45 M RAFAELA 51:09:09 5:06:55
71 GARCIA, RODRIGO 30 M SUSANA 52:21:00 5:14:06
72 POSSETTO, FERNANDO 45 M RAFAELA 52:22:00 5:14:12
73 GARCIA, MARIA JOSE 28 F SANTA FE 52:34:07 5:15:25
74 CARABALLO, MONICA ALEJANDRA 36 F PARANA (E.R.) 52:37:45 5:15:47
75 MANFREDI, MARIANO ANDRES 38 M RAFAELA 52:53:00 5:17:18
76 CARPIO, AUGUSTO CARLOS 62 M PARANA (E.R.) 52:56:45 5:17:41
77 COSTMAGNA, GABRIEL HERNAN 38 M RAFAELA 53:22:00 5:20:12
78 SAUCEDO, ANTONIO 50 M RAFAELA 53:22:29 5:20:15
79 DONNET, ROCIO 19 F RAFAELA 53:47:23 5:22:44
80 GHIBERTO, DARIO 50 M RAFAELA 53:48:00 5:22:48
81 DEMARTIN, ROCIO 19 F RAFAELA 54:02:01 5:24:12
82 D’ELIA, ARIEL 35 M SANTA FE 54:05:48 5:24:35
83 CARDOZO, ELBA SUSANA 37 F EST. CLUCELLAS 54:28:54 5:26:53
84 SANCHIS, ANIBAL 36 M RAFAELA 54:32:51 5:27:17
85 ARGAÑARAZ, OSCAR V. 56 M RAFAELA 55:00:50 5:30:05
86 BERTOLINI, JULIAN LEONEL 19 M RAFAELA 55:08:50 5:30:53
87 GUNTERN, GUILLERMO 45 M RAFAELA 55:22:00 5:32:12
88 PEON, GUSTAVO 43 M RAFAELA 55:37:00 5:33:42
89 VICENTIN, MONICA A. 43 F SANTA FE 55:42:00 5:34:12
90 CAPELLINO, JOSE L. 43 M SUNCHALES 55:46:46 5:34:41
91 MATEO, VICTOR ENRIQUE 59 M SAN FRANCISCO (CBA) 55:53:03 5:35:18
92 ROSSO, CARLOS A. 61 M RAFAELA 55:57:21 5:35:44
93 VELIZ, JUAN JOSE 30 M RAFAELA 56:01:48 5:36:11
94 BARONETTI, GERMAN 32 M RAFAELA 56:03:47 5:36:23
95 SOVRANO, MARIA GUADALUPE 46 F SANTA FE 56:04:57 5:36:30
96 BARAVALLE, JOSE M. 62 M SANTA FE 56:52:05 5:41:12
97 VENCE, LUIS 43 M RAFAELA 56:58:00 5:41:48
98 ARAGON, LUISA 35 F AÑATUYA (S.E.) 57:25:00 5:44:30
99 KLOSTER, SOFIA 15 F RAFAELA 57:45:58 5:46:36
100 BLANZARI, REINALDO 57 M SAN FRANCISCO (CBA) 57:49:14 5:46:55
101 PIUZZI, ROCIO SOLEDAD 18 F RAFAELA 57:54:39 5:47:28
102 FOGOLIN, AGUSTIN CARLOS 19 M RAFAELA 57:55:00 5:47:30
103 MORILLA, JUAN 62 M SANTA FE 58:08:43 5:48:52
104 AVILA, LUCIO 16 M RAFAELA 58:17:32 5:49:45
105 RODRIGUEZ, FEDERICO 15 M RAFAELA 58:18:00 5:49:48
106 GINEZ, JAVIER 38 M RAFAELA 58:28:00 5:50:48
107 FAVARO, MAURICIO 39 M RAFAELA 58:55:12 5:53:31
108 BISIO, ANDRES ALFREDO 26 M SANTA FE 58:57:00 5:53:42
109 BECCACECE, DIEGO 32 M RAFAELA 61:26:29 6:08:39
110 GARETTO, HORACIO 51 M RAFAELA 61:44:00 6:10:24
111 TRONCOSO, YANINA 35 F RAFAELA 62:11:25 6:13:08
112 DAVICINO, RENE 57 M RAFAELA 62:17:00 6:13:42
113 BARONETTI, MONICA 50 F RAFAELA 62:37:00 6:15:42
114 DOCE, GRACIELA 60 F COLASTINE NORTE 64:16:00 6:25:36
115 PEREYRA, GABRIELA 17 F PARANA (E.R.) 66:25:00 6:38:30
116 VELIZ, FRANCISCO 78 M RAFAELA 74:24:00 7:26:24

Tags: , , , , , ,

opinión de los lectores


EL DEPORNAUTA no publicará comentarios inapropiados ni acusaciones infundadas. Tampoco tendrán cabida las opiniones que incluyan insultos o groseras descalificaciones. Los comentarios publicados son de exclusiva responsabilidad de sus autores que podrán ser pasibles de las sanciones legales que correspondan por sus dichos

Deja tu comentario!

mas noticias

Consejos para no estropear un maratón

El atleta olímpico Julio Gómez explicó como evitar los errores más comunes que impiden bajar los tiempos en carreras de calle.

medio maraton junin 4

Descuento para el Maratón de Mar del Plata

Bonificación especial para correr 42, 21 o 10 kilómetros en un circuito costero con 198.000 pesos en premios en efectivo.

maraton 2016

Se retiró Usain Bolt

El velocista jamaiquino abandono el torneo nacional de su país sin brindar explicación alguna.

bolt largada 1

Mar del Plata copó el Maratón de Rosario

Los corredores de La Feliz, Lucas Bagaloni y Florencia Estévez, lograron sendas victorias en los 42K de la Bandera.

bagaloni

Beneficios del Trail Running

Conocé como aprovechar al máximo los entrenamientos para correr en senderos rurales o de montaña.

trail running 1

Así se corre con frío

Recomendaciones para no interrumpir el entrenamiento de running durante el invierno.

running frio 1

Corré la Salomon K21 de Junín

En la bonaerense Laguna de Gómez se realizará el medio maratón de cross aventura junto con una prueba de 10K.

k21 llegada pauluzak san pedro 1

Colombia también domina el MTB

Además de la hegemonía de los escarabajos en pruebas de ruta, Leonardo Páez subió al podio en el mundial de montaña.

paez ciclismo mtb

Así se usan los cambios de la bicicleta

Aprovechá los platos y piñones para pedalear más rápido con menos esfuerzo según el terreno, la distancia y el viento.

mtb 1

África pedaleará en el Tour de France

El MTN Qhubeka será el primer equipo del continente negro que competirá en la ronda gala.

mtn-africa-ciclismo-2-588x400

Autorizan los frenos de disco

La Unión Ciclista Internacional habilitó a los equipos del circuito World Tour a utilizar este sistema que genera tantas adhesiones como rechazos.

bicicleta freno disco 1

Top-5 argentino en Francia

Eduardo Sepúlveda se lució en la Route du Sud donde triunfó el español Alberto Contador escoltado por el colombiano Nairo Quintana.

sepulveda ciclismo bicicleta 1

Pedaleó 10.000 Km. en 42 días

Se batió un nuevo récord en bicicleta para completar el trayecto que une Egipto con Sudáfrica.

beaumont ciclismo bicicleta africa 1

Maldita lesión

Un campeón mundial de ciclismo quedó marginado del Tour de France que comenzará el próximo 4 de julio.

gilbert bicicleta 1

Ejercicios para la patada de crol

Consejos para nadar más rápido aprovechando al máximo el tren inferior.

natacion patada crol 1

De Uruguay a Canadá a pura brazada

Los nadadores Martín Melconián e Inés Remersario clasificaron a los Juegos Panamericanos de Toronto 2015.

melconian martin

Dos triunfos bien postas

La selección argentina de natación ganó dos pruebas de relevos en la última jornada del Gran Prix de Santa Clara en Estados Unidos.

ceballos espalda natacion 1

A media brazada del podio

Santiago Grassi arribó 4º en la final A de los 100 metros mariposa del Grand Prix Santa Clara de Estados Unidos.

grassi santiago primer plano 1

Phelps volvió a la cima del podio

El máximo campeón olímpico de la historia triunfó en el Gran Prix de Santa Clara tras seis carreras sin victorias.

phelps mariposa 2

El doping tiene brazadas cortas

Una nadadora deberá devolver su diploma olímpico porque se constató que utilizó sustancias ilícitas en Londres 2012.

natacion doping record 1

10 razones para practicar natación

Decálogo con los beneficios de entrenar en pileta.

natacion mujer 1

Ejercicios para la patada de crol

Consejos para nadar más rápido aprovechando al máximo el tren inferior.

natacion patada crol 1

Así se usan los cambios de la bicicleta

Aprovechá los platos y piñones para pedalear más rápido con menos esfuerzo según el terreno, la distancia y el viento.

mtb 1

Entre Ríos tiene más duatlón

El domingo 12 de julio en Seguí se disputará la 3º fecha provincial en distancia olímpica y sprint con bicicleta de ruta o MTB.

duatlon entre rios largada 1

Resultados Duatlón Crespo

Clasificación oficial de la tercera fecha entrerriana.

podio crespo 1

IronMan deberá pagar 3 millones de dólares

Un tribunal condenó a la World Triathlon Corporation a reintegrar las sumas que cobró en la lotería del mundial de Hawaii.

ironman hawaii maraton 1

Somos los campeones

En Córdoba se definieron los títulos argentinos de duatlón. VIDEO Y RESULTADOS.

podio duatlon cordoba 1

IronMan Sub-9 horas

Crhistian Burgos habló tras ganar el título latinoamericano de triatlón clasificándose al campeonato mundial de Hawaii.

burgos primer plano 1

Beneficios del Trail Running

Conocé como aprovechar al máximo los entrenamientos para correr en senderos rurales o de montaña.

trail running 1

Corré la Salomon K21 de Junín

En la bonaerense Laguna de Gómez se realizará el medio maratón de cross aventura junto con una prueba de 10K.

k21 llegada pauluzak san pedro 1

Preparación para pedalear grandes distancias

Alimentación, mecánica y entrenamiento para mejorar tu rendimiento en carreras o salidas de ciclismo MTB con muchos kilómetros.

mtb 1

Estudios médicos para deportistas

Exámenes específicos para todas las edades y niveles competitivos con cobertura de obras sociales.

tcba corredora

Corriendo cuesta arriba

Conocé como entrenar en escaleras para tener más fuerza mejorando la técnica de carrera evitando lesiones.

corredora escaleras 1

Un Día del Periodista a pura noticia

Agradecemos a los lectores y anunciantes que nos posicionaron como el diario digital Nº1 en deportes olímpicos.

horowitz gaby radio shimano mayo 2

Argentina Top-10 en mundial de trail running

La selección femenina culminó 8º en el ultramaratón de 86K en Francia donde los hombres finalizaron en 14º ubicación.

ultramaraton mujeres argentina

El show del fútbol

Argentina derrotó a Paraguay por 6 a 1 clasificándose a la final de la Copa América que definirá ante Chile. VIDEO DE GOLES.

rojo

El mejor equipo de la historia

Con Messi y Mascherano, Barcelona de España sumó su segunda triple corona al conquistar la Champions League venciendo 3 a 1 a la Juventus de Italia.

barcelona messi 1

Boca le ganó a River

Se impuso con dos goles convertidos al final del partido que lo sitúan como único líder del torneo argentino de primera división.

boca-river

River ganó la Recopa

El equipo millonario volvió a vencer por 1 a 0 a San Lorenzo conquistando el séptimo título internacional en la historia del club de Núñez.

river campeon 1

Argentina clasificó a los Juegos Olímpicos

Tras la ausencia de Londres 2012, el fútbol albiceleste sacó pasaje a Río 2016 gracias a coronarse campeón sudamericano Sub-20.

argentina futbol

El secreto de la velocidad de Usain Bolt

El corredor más rápido de la historia utiliza la misma tecnología que el futbolista Karim Benzema.

bolt electro 2

Dream Team

Se lanzó la Asociación de Marketing Deportivo de la Argentina que reúne a los principales profesionales a nivel nacional.

amda

Buen debut

Los tenistas argentinos Leo Mayer y Juan Mónaco avanzaron a la segunda ronda de Wimbledon sin perder ni siquiera un set.

monaco tenis wimbledon

Delbonis campeón

El tenista argentino conquistó el torneo Challenger de Milán en Italia donde sumó su segundo título de esta temporada.

TORNEO DE TENIS DE GINEBRA

Victoria de Maxi Passadore en el Duatlón de Buenos Aires

Se disputó la 1º fecha porteña en Costanera Sur. RESULTADOS.

passadore primer plano 1

Wawrinka campeón de Roland Garros

El tenista suizo conquistó el torneo francés de Grand Slam al vencer al serbio Novak Djokovic.

Stan Wawrinka of Switzerland plays a shot to Gilles Simon of France during their men's singles match at the French Open tennis tournament at the Roland Garros stadium in Paris

A Federer lo hicieron polvo

El mejor tenista de la historia perdió en sets corridos con Wawrinka en cuartos de final de Roland Garros.

federer grito polvo

Leo Mayer sigue adelante

El tenista correntino avanzó a la tercera ronda de Roland Garros.

mayer saque 1

Buen comienzo

Juan Mónaco y Diego Schwartzman lograron sendas victorias avanzando a segunda ronda de Roland Garros.

monaco primer plano 1

Resultados Duatlón Crespo

Clasificación oficial de la tercera fecha entrerriana.

podio crespo 1

Resultados Duatlón Villa Elisa

Clasificación oficial de la 1º fecha entrerriana.

podio duatlon elisa

Buenas noticias, buena música

Audio del programa Nº193 de Eldepornauta RADIO con información de ciclismo, natación, running y triatlón.

radio shimano depornauta 3 baja

Resultados Aguas Abiertas Pilar

Clasificación del maratón acuático Lagos del Rocío.

triatlon natacion

Corrió 84 veces los 100 metros en menos de 10 segundos

El velocista jamaiquino Asafa Powell estableció la mejor marca del año.

powell

Bicicleta MTB de 13.800 euros

Conocé el rodado más caro de la décima edición de la Titán Desert que se disputó en las dunas marroquíes.

bicicleta titan

Zancadas solidarias

La novena edición de los 15K Transitions también reunió fondos para la atención médica de alumnos de escuelas rurales.

transitions 1

Argentina tiene Triatlón IronMan

Buenos Aires será sede de una prueba clasificatoria para el campeonato mundial con 25.000 dólares en premios en efectivo.

ironman buenos aires

Argentina copó el podio en Brasil

La selección nacional de natación paralímpica conquistó veintiún medallas en el torneo Open Caixa de San Pablo.

natacion paralimpica argentina 1

Triatlón al más alto nivel

La selección argentina compitió en la ITU World Triathlon Series de Nueva Zelanda. RESULTADOS.

taccone triatlon

Karina Córdoba arribó 3º en 21K de España

La atleta porteña se colgó el bronce en el Medio Maratón de Elche registrando la segunda mejor marca argentina del año.

cordoba running maraton 3

La corredora más veloz

Rosa Godoy se coronó campeona argentina clasificándose a los Panamericanos de Canadá y el Sudamericano de Perú.

rosa godoy atletismo running 2

Top-5 argentino en Copa del Mundo de triatlón

Gonzalo Tellechea arribó 5º entre 75 compertidores en Nueva Zelanda.

triatlon argentina 3

Triple oro para Miguelena

El nadador marplatense conquistó los títulos nacionales de 50, 100 y 200 metros pecho del campeonato argentino donde logró la mejor marca técnica.

miguelena pecho 1

Consejos para no estropear un maratón

El atleta olímpico Julio Gómez explicó como evitar los errores más comunes que impiden bajar los tiempos en carreras de calle.

medio maraton junin 4

Así se corre con frío

Recomendaciones para no interrumpir el entrenamiento de running durante el invierno.

running frio 1

Ponete a punto para el Maratón de Buenos Aires

Descuento para los 30K Vuelta a la Laguna de Chascomús tanto individual como postas.

leiva largada 1

“Nada es imposible”

Belén Casetta contó en Eldepornauta RADIO como superó las adversidades para batir un récord argentino y seguir adelante con sus estudios de medicina.

casetta playa running

IronMan Sub-9 horas

Crhistian Burgos habló tras ganar el título latinoamericano de triatlón clasificándose al campeonato mundial de Hawaii.

burgos primer plano 1

Preparación para pedalear grandes distancias

Alimentación, mecánica y entrenamiento para mejorar tu rendimiento en carreras o salidas de ciclismo MTB con muchos kilómetros.

mtb 1

Un Día del Periodista a pura noticia

Agradecemos a los lectores y anunciantes que nos posicionaron como el diario digital Nº1 en deportes olímpicos.

horowitz gaby radio shimano mayo 2

Colombia también domina el MTB

Además de la hegemonía de los escarabajos en pruebas de ruta, Leonardo Páez subió al podio en el mundial de montaña.

paez ciclismo mtb

De Uruguay a Canadá a pura brazada

Los nadadores Martín Melconián e Inés Remersario clasificaron a los Juegos Panamericanos de Toronto 2015.

melconian martin

México organizará el mundial de triatlón

Quintana Roo será sede del campeonato del mundo del deporte de las tres disciplinas.

grajales mexico triatlon

El nuevo gran héroe de la bicicleta

Tras finalizar 4º en el Giro de Italia, el ciclista costarricense Andrey Amador recibió ofrecimientos de dos grandes equipos del pelotón internacional.

amador contrarreloj 1

Alberto Contador ganó el Giro de Italia

Conquistó su segundo título azurro al pedalear 3.493 kilómetros en 88 horas.

contador festejo 1

Nairo Quintana es embajador de Colombia

El campeón del Giro de Italia fue designado representante nacional por el ministro de agricultura.

quintana nairo contrarreloj 1

Falleció una campeona de triatlón

Número uno sudamericana Sub-20, Cristina Fárez murió al ser atropellada por una camioneta cuando pedaleaba de regreso de un entrenamiento.

farez cristina llegada 1

Un Día del Periodista a pura noticia

Agradecemos a los lectores y anunciantes que nos posicionaron como el diario digital Nº1 en deportes olímpicos.

horowitz gaby radio shimano mayo 2

Feliz Día Mundial de la RADIO

Eldepornauta.com saluda a oyentes, colegas e integrantes cuyo trabajo nos permite celebrar 188 programas con buenas noticias y la mejor música.

radio grupal 3

“El running te ordena la vida”

La corredora Clarisa Ríos contó en Eldepornauta RADIO como dejó el cigarrillo hasta convertirse en una referente del atletismo de calle.

clarisa rios sprint 1

86 páginas de puro running

Víctor Aufgang habló sobre la experiencia de correr 52 maratones que volcó en su libro Entre Máquinas y Zapatillas.

victor libro 3

Yoga para running, natación y ciclismo

Beneficios de esta disciplina milenaria para quienes corren, nadan o pedalean.

yoga 3

Eldepornauta cumple 11 años

El Diario Digital de los Atletas inicia su segunda década difundiendo la pasión por las disciplinas olímpicas vía web, redes sociales y radio.

radio monitor depornauta 2

Running en Eldepornauta RADIO

Hoy mirá por web o celular nuestro programa Nº182 donde el corredor Víctor Aufgang hablará sobre experiencia en el World Marathon Major que reflejó en su libro Entre Máquinas y Zapatillas.

victor libro 2